Regional Weather Roundup
Issued by NWS New Orleans/Baton Rouge, LA

Home | Current Version | Previous Version | Text Only | Print | Product List | Glossary On
Versions: 1 2 3 4 5 6 7 8 9 10 11 12 13 14 15 16 17 18 19 20 21 22 23 24 25 26 27
000
ASUS44 KLIX 201013
RWRLIX
NEW ORLEANS REGIONAL WEATHER ROUNDUP
NATIONAL WEATHER SERVICE NEW ORLEANS LA
400 AM CST FRI JAN 20 2017

NOTE: "FAIR" INDICATES FEW OR NO CLOUDS BELOW 12,000 FEET WITH NO
      SIGNIFICANT WEATHER AND/OR OBSTRUCTIONS TO VISIBILITY.
      SKY/WX - SKY CONDITION AND SIGNIFICANT WEATHER.
      TMP - AIR TEMPERATURE.     DP    - DEWPOINT TEMPERATURE.
      RH  - RELATIVE HUMIDITY.   PRES  - PRESSURE.
      HI  - HEAT INDEX.          WCI   - WIND CHILL INDEX.

*  THESE STATIONS ARE NOT NWS OR FAA STATIONS AND ARE NOT UNDER
   NWS QUALITY CONTROL.

LAZ038-040-048-061>063-065>067-069-201100-
SOUTHEAST LOUISIANA

CITY           SKY/WX    TMP DP  RH WIND       PRES   REMARKS
N.O. AUDUBON   NOT AVBL
N.O. INTL ARPT MOCLDY    64  63  96 S6        29.80F
N.O. LAKEFRONT PTCLDY    64  63  96 S10       29.81S
N.O. DOWNTOWN* NOT AVBL
RESERVE*       CLOUDY    65  63  94 CALM      29.80S
SLIDELL        PTCLDY    63  62  97 S5        29.79F
BATON ROUGE    FOG       63  63 100 S7        29.78F VSB 1
BOOTHVILLE     CLOUDY    65  64  97 S8        29.83F
BELLE CHASSE   CLEAR     64  63  96 CALM      29.80F
BOGALUSA*      CLOUDY    62  59  91 CALM      29.82S VSB 1
GALLIANO*      SUNNY     66  63  90 S3        29.81S
NEW ROADS*     FOG       62  62 100 S6        29.79F VSB 3/4
GONZALES*      PTSUNNY   61  61 100 CALM      29.78F
HAMMOND*       FOG       61  59  94 CALM      29.79F VSB 1/4
HOUMA*         CLOUDY    67  66  97 S3        29.80F
PORT FOURCHON* CLOUDY    68  66  94 S6        29.81S

$$

MSZ070-080>082-201100-
SOUTHERN MISSISSIPPI

CITY           SKY/WX    TMP DP  RH WIND       PRES   REMARKS
MCCOMB         FOG       61  60  97 SW7       29.79S VSB 1
GULFPORT       CLEAR     65  63  93 S5        29.80F
BILOXI         CLEAR     64 N/A N/A SW8       29.81S
PASCAGOULA     CLEAR     61  58  90 CALM      29.82F

$$

COASTAL OBSERVATIONS
LAKE AND NEARSHORE STATIONS

STATION/POSITION TIME  TEMP    WIND        PRES    WAVE
                       AIR SEA DIR/SP/G            HT/PER
                 (UTC) (F)     (DEG/KT/KT) (MB)    (FT/S)
PASCAGOULA       0942   65     200/  7/ 10 1009.3
WAVELAND YACHT   0942   65 65  200/  6/  9 1009.4
GRAND ISLE       0948   67 68  170/  5/  7 1009.6
SOUTHWEST PASS   0942          180/ 15/ 15   N/A
NEW CANAL        0942   65 58  190/  4/  6 1008.5
SHELL BEACH      0942   65 67  170/  9/ 10 1009.4

OFFSHORE STATIONS

STATION/POSITION TIME  TEMP    WIND        PRES    WAVE
                       AIR SEA DIR/SP/G            HT/PER
                 (UTC) (F)     (DEG/KT/KT) (MB)    (FT/S)

$$





USA.gov is the U.S. government's official web portal to all federal, state and local government web resources and services.